User: anonymous   Login
Location: Unspecified
(0.0000°N, 0.0000°E)
Time: 19:05:25
(UTC+00:00)
Language:

STARLINK-5588 - Orbit

View from above orbital plane
View from above orbital plane
View from above satellite
View from above satellite

Ground track
Ground track

The orbit is defined by the following mean orbital elements,

1 55375U          26145.58445139 +.00000000 +00000-0 +51854-4 0 00002
2 55375  43.0021 247.2300 0001593 267.1498  92.9171 15.27575955    00
Epoch (UTC): 25 May 2026 14:01:36
Eccentricity: 0.0001593
inclination: 43.0021°
perigee height: 482 km
apogee height: 484 km
right ascension of ascending node: 247.2300°
argument of perigee: 267.1498°
revolutions per day: 15.27575955
mean anomaly at epoch: 92.9171°

The dashed part of the orbit path shows where the satellite is in the earth's shadow,  

DLR